Location: Wald
(31.7579°N, 86.6655°W)
Time: 21:11:13
(UTC+00:00)

Cosmos 2237 Rocket - Pass Details

Date: 14 July 2020
Orbit: 835 x 850 km, 71.0° (Epoch: 13 August)

Event Time Altitude Azimuth Distance (km) Brightness Sun altitude
Rises 02:55:29 0° 218° (SW) 3,395 5.3 -21.8°
Reaches altitude 10° 02:58:04 10° 225° (SW) 2,464 4.6 -22.2°
Maximum altitude 03:03:22 40° 295° (WNW) 1,228 3.5 -23.0°
Drops below altitude 10° 03:08:42 10° 4° (N) 2,479 5.2 -23.8°
Sets 03:11:19 0° 12° (NNE) 3,418 5.9 -24.1°
